Date,TemperatureHighF,TemperatureAvgF,TemperatureLowF,DewpointHighF,DewpointAvgF,DewpointLowF,HumidityHigh,HumidityAvg,HumidityLow,PressureMaxIn,PressureMinIn,WindSpeedMaxMPH,WindSpeedAvgMPH,GustSpeedMaxMPH,PrecipitationSumIn
2013-7-1,79.4,73.8,70.8,75.0,71.5,69.0,97,92,81,30.06,29.92,1,0,4,0.76
2013-7-2,83.0,73.2,62.0,75.0,70.2,61.0,98,91,74,30.20,30.06,2,0,9,0.00
2013-7-3,87.5,74.3,60.9,75.0,68.8,60.0,97,84,64,30.20,30.13,3,0,11,0.00
2013-7-4,92.6,81.3,73.2,76.0,73.2,71.0,93,77,56,30.19,30.08,4,1,8,0.00
2013-7-5,94.7,82.8,73.8,76.0,73.8,72.0,93,75,51,30.14,30.02,4,0,9,0.00
2013-7-6,90.3,80.4,73.7,74.0,71.8,64.0,92,76,52,30.07,29.97,5,1,9,0.00
2013-7-7,93.6,77.6,68.8,77.0,70.8,65.0,94,80,55,30.02,29.89,2,0,5,0.02
2013-7-8,86.4,75.8,67.5,76.0,71.7,66.0,97,87,63,30.05,29.90,5,0,11,0.02
2013-7-9,72.5,68.1,64.6,69.0,66.0,64.0,97,93,87,30.10,30.04,3,0,6,0.00
2013-7-10,85.9,72.9,65.9,76.0,70.2,64.0,97,91,69,30.07,29.79,2,0,5,0.12
2013-7-11,79.7,73.9,70.5,76.0,71.8,66.0,97,93,78,29.92,29.77,2,0,4,0.10
2013-7-12,78.4,70.6,65.8,65.0,61.4,57.0,85,73,51,30.20,29.93,9,1,11,0.00
2013-7-13,76.6,70.4,64.9,71.0,65.7,58.0,96,85,78,30.30,30.20,3,0,5,0.08
2013-7-14,89.3,77.4,69.4,78.0,72.2,68.0,98,85,52,30.30,30.20,5,0,7,0.00
2013-7-15,91.2,79.8,71.6,77.0,72.3,68.0,95,79,48,30.20,30.09,9,0,13,0.00
2013-7-16,93.2,80.7,70.4,74.0,69.4,66.0,88,70,45,30.16,30.10,7,1,10,0.00
2013-7-17,94.8,81.2,69.9,76.0,71.2,68.0,94,74,45,30.17,29.98,2,0,5,0.00
2013-7-18,94.2,82.5,74.5,77.0,72.9,70.0,88,74,49,30.00,29.92,6,1,8,0.00
2013-7-19,96.3,84.2,71.9,78.0,73.9,70.0,93,73,49,29.93,29.70,8,1,13,0.00
2013-7-20,89.7,81.6,72.5,77.0,73.4,65.0,92,76,59,29.80,29.64,5,1,9,0.13
2013-7-21,82.8,74.2,67.1,69.0,65.5,63.0,91,75,58,29.98,29.80,3,0,7,0.00
2013-7-22,76.3,70.8,67.0,67.0,66.0,65.0,92,85,72,29.98,29.88,2,0,6,0.00
2013-7-23,77.5,70.9,68.2,75.0,69.7,66.0,97,96,90,29.88,29.53,2,0,5,1.71
2013-7-24,82.7,74.1,63.8,72.0,67.0,54.0,98,80,57,29.96,29.58,6,1,10,0.00
2013-7-25,63.3,59.2,57.1,58.0,53.5,48.0,96,82,68,30.10,29.96,9,1,9,0.09
2013-7-26,72.2,64.2,58.8,67.0,61.7,58.0,96,92,80,30.07,29.95,5,1,11,0.32
2013-7-27,84.5,70.3,60.7,69.0,63.3,59.0,95,80,49,30.05,29.98,5,0,8,0.00
2013-7-28,86.2,71.0,62.7,72.0,66.3,61.0,96,86,57,30.02,29.95,2,0,7,0.08
2013-7-29,82.4,71.5,66.5,74.0,68.4,64.0,97,90,69,30.04,29.95,2,0,4,0.58
2013-7-30,80.7,70.1,61.5,64.0,59.8,56.0,93,72,44,30.09,30.03,4,1,8,0.00
2013-7-31,82.3,69.5,59.5,66.0,60.4,53.0,94,75,45,30.13,30.03,5,0,7,0.00